DateTimeUTC,F1_A11,F1_S11,BsB_S11,BsG_S11,BsR_S11,BbsB_S11,BbsG_S11,BbsR_S11,BaB_A11,BaG_A11,BaR_A11,T_S11,U_S11,P_S11,T1_A11
2020-03-27T00:00:00Z,00000388,21000608,,,,,,,,,,22.5,00.0,0628.0,30.8
2020-03-27T00:01:00Z,00000388,21000608,,,,,,,,,,22.5,00.0,0628.0,30.8
2020-03-27T00:02:00Z,00000388,21000608,,,,,,,,,,22.5,00.0,0628.0,30.8
2020-03-27T00:03:00Z,00000388,61000608,,,,,,,,,,22.5,00.0,0628.0,30.8
2020-03-27T00:04:00Z,00000388,41000608,0002.80,0001.93,0001.55,0000.69,0000.34,0000.29,0000.01,-000.05,-000.07,22.4,00.0,0628.9,30.8
2020-03-27T00:05:00Z,00000388,01000608,0001.31,0001.98,0001.13,0000.07,0000.14,0000.18,0000.03,0000.23,0000.19,22.3,00.0,0628.9,30.8
2020-03-27T00:06:00Z,00000388,01000608,0002.44,0001.41,0000.92,0000.41,0000.23,0000.57,0000.32,0000.20,0000.08,22.3,00.0,0628.9,30.8
2020-03-27T00:07:00Z,00000388,01000608,0001.16,0001.93,0000.52,0000.33,0000.24,-000.24,0000.16,0000.15,0000.22,22.2,00.0,0628.9,30.8
2020-03-27T00:08:00Z,00000388,01000608,0002.45,0002.24,0000.90,-000.36,-000.18,0000.28,0000.06,0000.12,-000.09,22.2,00.0,0628.9,30.8
2020-03-27T00:09:00Z,00000388,01000608,0003.53,0002.09,0000.80,0000.32,-000.10,0000.32,0000.14,-000.05,0000.13,22.2,00.0,0628.9,30.8
2020-03-27T00:10:00Z,00000388,01000608,0002.83,0002.23,0000.73,0000.09,0000.08,0000.39,0000.22,0000.08,0000.24,22.2,00.0,0628.9,30.8
2020-03-27T00:11:00Z,00000388,01000608,0003.54,0001.88,0000.76,0000.73,0000.04,0000.28,0000.28,0000.37,0000.17,22.1,00.0,0628.9,30.8
2020-03-27T00:12:00Z,00000388,01000608,0002.63,0002.20,0001.26,0000.32,0000.06,0000.05,0000.36,0000.32,0000.16,22.1,00.0,0628.9,30.8
2020-03-27T00:13:00Z,00000388,01000608,0003.00,0001.63,0000.99,0000.94,0000.06,0000.26,0000.18,0000.06,0000.18,22.1,00.0,0628.9,30.8
2020-03-27T00:14:00Z,00000388,01000608,0002.54,0002.13,0000.86,0000.45,0000.30,0000.03,0000.27,0000.35,0000.29,22.2,00.0,0628.9,30.8
2020-03-27T00:15:00Z,00000388,01000608,0002.03,0001.58,0001.05,0001.22,0000.23,0000.29,0000.17,0000.14,0000.13,22.2,00.0,0628.9,30.8
2020-03-27T00:16:00Z,00000388,01000608,0001.46,0001.65,0000.54,0001.23,0000.13,-000.16,0000.28,0000.20,0000.07,22.2,00.0,0628.9,30.8
2020-03-27T00:17:00Z,00000388,01000608,0003.70,0001.60,0000.92,0000.79,-000.30,0000.13,0000.13,0000.28,0000.25,22.2,00.0,0628.9,30.8
2020-03-27T00:18:00Z,00000388,01000608,0003.72,0001.24,0001.40,0000.39,0000.14,0000.16,0000.24,0000.40,0000.15,22.2,00.0,0628.9,30.8
2020-03-27T00:19:00Z,00000388,01000608,0003.53,0001.98,0000.72,-000.22,0000.10,0000.32,0000.18,0000.15,0000.13,22.2,00.0,0628.9,30.9
2020-03-27T00:20:00Z,00000388,01000608,0002.35,0002.13,0000.77,-000.17,-000.04,-000.06,0000.29,0000.23,0000.17,22.2,00.0,0628.9,30.9
2020-03-27T00:21:00Z,00000388,01000608,0002.19,0002.15,0001.02,0000.00,0000.37,0000.49,0000.23,-000.18,0000.21,22.3,00.0,0628.9,30.9
2020-03-27T00:22:00Z,00000388,01000608,0003.10,0001.89,0001.53,0000.69,0000.70,0000.16,0000.25,0000.57,0000.23,22.2,00.0,0628.8,30.8
2020-03-27T00:23:00Z,00000388,01000608,0002.74,0002.00,0001.01,0000.80,0000.25,0000.17,0000.18,0000.20,0000.07,22.2,00.0,0628.8,30.8
2020-03-27T00:24:00Z,00000388,01000608,0002.99,0002.76,0001.13,0000.30,0000.27,0000.50,0000.22,0000.01,0000.16,22.2,00.0,0628.8,30.8
2020-03-27T00:25:00Z,00000388,01000608,0003.31,0002.17,0001.22,0000.05,0000.56,0000.08,0000.27,0000.13,0000.14,22.2,00.0,0628.8,30.8
2020-03-27T00:26:00Z,00000388,01000608,0003.30,0002.45,0001.35,0001.40,0000.53,0000.15,0000.45,0000.52,0000.31,22.1,00.0,0628.8,30.8
2020-03-27T00:27:00Z,00000388,01000608,0003.10,0001.60,0000.64,0000.68,0000.18,-000.15,0000.34,0000.37,0000.26,22.1,00.0,0628.8,30.8
2020-03-27T00:28:00Z,00000388,01000608,0003.04,0001.64,0000.90,0000.15,0000.21,0000.18,0000.23,0000.37,0000.43,22.1,00.0,0628.8,30.8
2020-03-27T00:29:00Z,00000388,01000608,0003.01,0001.28,0000.86,0000.65,0000.31,0000.41,0000.10,0000.19,0000.02,22.2,00.0,0628.8,30.8
2020-03-27T00:30:00Z,00000388,01000608,0003.52,0001.94,0000.63,0000.67,0000.11,0000.01,0000.26,0000.13,0000.15,22.2,00.0,0628.8,30.8
2020-03-27T00:31:00Z,00000388,01000608,0002.35,0001.14,0000.54,0000.78,0000.08,0000.12,0000.10,-000.05,0000.04,22.2,00.0,0628.8,30.8
2020-03-27T00:32:00Z,00000388,01000608,0003.27,0002.38,0000.67,0000.89,0000.35,0000.35,-000.02,0000.20,0000.04,22.2,00.0,0628.9,30.9
2020-03-27T00:33:00Z,00000388,01000608,0003.21,0001.95,0000.51,0000.11,0000.35,0000.02,0000.19,0000.31,0000.18,22.2,00.0,0628.9,30.9
2020-03-27T00:34:00Z,00000388,01000608,0003.30,0001.87,0000.54,0001.18,0000.23,0000.18,0000.25,-000.14,0000.11,22.2,00.0,0628.9,30.9
2020-03-27T00:35:00Z,00000388,01000608,0004.69,0002.65,0000.72,0000.21,0000.21,0000.12,0000.19,0000.34,0000.24,22.2,00.0,0628.9,30.8
2020-03-27T00:36:00Z,00000388,01000608,0002.28,0001.92,0000.68,0000.53,-000.19,0000.09,0000.09,0000.12,0000.13,22.2,00.0,0628.9,30.8
2020-03-27T00:37:00Z,00000388,01000608,0003.01,0002.10,0000.90,-000.20,0000.59,0000.30,0000.12,0000.16,0000.02,22.1,00.0,0628.9,30.8
2020-03-27T00:38:00Z,00000388,01000608,0002.62,0001.37,0001.52,-000.02,0000.25,0000.22,0000.25,-000.01,0000.02,22.1,00.0,0628.8,30.8
2020-03-27T00:39:00Z,00000388,01000608,0002.93,0002.02,0001.18,0000.46,0000.45,0000.17,0000.25,0000.37,0000.24,22.1,00.0,0628.8,30.8
2020-03-27T00:40:00Z,00000388,01000608,0003.07,0002.36,0000.84,0000.57,-000.17,0000.40,0000.26,0000.05,0000.29,22.0,00.0,0628.8,30.8
2020-03-27T00:41:00Z,00000388,01000608,0003.11,0001.93,0000.51,0000.33,0000.25,0000.11,0000.07,0000.15,0000.09,22.0,00.0,0628.8,30.8
2020-03-27T00:42:00Z,00000388,01000608,0002.96,0001.46,0001.07,0000.09,0000.11,0000.18,0000.11,0000.20,0000.13,22.0,00.0,0628.8,30.8
2020-03-27T00:43:00Z,00000388,01000608,0003.63,0002.14,0000.55,0000.84,0000.15,0000.11,0000.14,-000.05,0000.04,22.0,00.0,0628.9,30.8
2020-03-27T00:44:00Z,00000388,01000608,0002.81,0001.92,0001.00,0000.66,0000.61,0000.19,0000.11,0000.37,0000.26,22.0,00.0,0628.9,30.8
2020-03-27T00:45:00Z,00000388,01000608,0003.24,0001.86,0000.73,0000.21,0000.10,-000.13,0000.09,0000.26,0000.03,22.0,00.0,0628.9,30.8
2020-03-27T00:46:00Z,00000388,01000608,0003.08,0002.37,0000.91,0000.37,0000.38,0000.33,0000.33,0000.15,0000.14,22.1,00.0,0628.9,30.8
2020-03-27T00:47:00Z,00000388,01000608,0001.86,0002.27,0000.99,0000.82,0000.32,0000.33,0000.30,0000.08,0000.22,22.1,00.0,0628.9,30.8
2020-03-27T00:48:00Z,00000388,01000608,0003.25,0001.85,0000.95,-000.29,0000.00,0000.11,0000.05,0000.26,0000.22,22.1,00.0,0629.0,30.9
2020-03-27T00:49:00Z,00000388,01000608,0002.43,0001.86,0000.40,0000.74,0000.83,-000.22,0000.16,0000.05,0000.07,22.1,00.0,0629.0,30.8
2020-03-27T00:50:00Z,00000388,01000608,0002.51,0001.79,0000.54,-000.54,0000.54,-000.24,0000.21,0000.14,0000.09,22.1,00.0,0629.0,30.8
2020-03-27T00:51:00Z,00000388,01000608,0003.58,0001.91,0000.74,0000.82,0000.52,0000.19,0000.13,0000.31,0000.25,22.2,00.0,0629.0,30.8
2020-03-27T00:52:00Z,00000388,01000608,0002.93,0002.21,0001.41,0000.63,0000.28,0000.55,0000.16,0000.19,0000.01,22.2,00.0,0629.0,30.9
2020-03-27T00:53:00Z,00000388,01000608,0003.06,0001.91,0000.73,0000.83,0000.18,0000.15,0000.18,-000.01,0000.09,22.2,00.0,0629.1,30.8
2020-03-27T00:54:00Z,00000388,01000608,0003.51,0002.27,0000.43,-000.03,0000.45,0000.15,0000.37,0000.26,0000.16,22.1,00.0,0629.1,30.8
2020-03-27T00:55:00Z,00000388,01000608,0002.68,0002.10,0001.02,0000.98,0000.20,0000.40,0000.10,-000.03,0000.19,22.1,00.0,0629.0,30.8
2020-03-27T00:56:00Z,00000388,01000608,0002.37,0001.95,0001.05,0000.74,0000.41,0000.20,0000.18,0000.28,0000.24,22.1,00.0,0629.0,30.8
2020-03-27T00:57:00Z,00000388,41000608,,,,,,,,,,22.2,00.0,0629.1,30.8
2020-03-27T00:58:00Z,00000388,61000608,,,,,,,,,,22.3,00.0,0628.1,30.8
2020-03-27T00:59:00Z,00000388,21000608,,,,,,,,,,22.4,00.0,0628.2,30.8
2020-03-27T01:00:00Z,00000388,21000608,,,,,,,,,,22.4,00.0,0628.2,30.8
2020-03-27T01:01:00Z,00000388,21000608,,,,,,,,,,22.4,00.0,0628.2,30.8
2020-03-27T01:02:00Z,00000388,21000608,,,,,,,,,,22.5,00.0,0628.2,30.9
2020-03-27T01:03:00Z,00000388,61000608,,,,,,,,,,22.5,00.0,0628.2,30.8
2020-03-27T01:04:00Z,00000388,41000608,0002.50,0001.59,0000.57,-000.34,0000.76,-000.47,0000.05,0000.23,0000.06,22.3,00.0,0629.1,30.8
2020-03-27T01:05:00Z,00000388,01000608,0001.78,0002.23,0000.80,0000.99,0000.23,-000.27,0000.29,0000.25,0000.16,22.3,00.0,0629.1,30.8
2020-03-27T01:06:00Z,00000388,01000608,0002.17,0001.82,0001.41,0000.29,0000.37,-000.04,0000.14,0000.23,0000.24,22.2,00.0,0629.1,30.8
2020-03-27T01:07:00Z,00000388,01000608,0003.65,0001.75,0001.10,0000.50,0000.47,0000.40,0000.24,0000.05,0000.15,22.2,00.0,0629.1,30.8
2020-03-27T01:08:00Z,00000388,01000608,0003.59,0001.79,0001.11,0002.11,0000.72,0000.43,0000.12,0000.28,0000.18,22.1,00.0,0629.0,30.8
2020-03-27T01:09:00Z,00000388,01000608,0002.18,0001.67,0000.93,0000.83,0000.74,0000.06,0000.40,0000.14,0000.08,22.1,00.0,0629.0,30.8
2020-03-27T01:10:00Z,00000388,01000608,0003.41,0001.58,0000.88,0000.49,0000.52,0000.12,0000.21,0000.21,0000.21,22.1,00.0,0629.0,30.8
2020-03-27T01:11:00Z,00000388,01000608,0003.05,0001.74,0000.61,0000.47,0000.21,0000.23,0000.31,0000.25,0000.20,22.0,00.0,0629.0,30.7
2020-03-27T01:12:00Z,00000388,01000608,0001.84,0001.03,0001.16,0000.87,0000.48,0000.58,0000.15,0000.14,0000.14,22.0,00.0,0629.1,30.8
2020-03-27T01:13:00Z,00000388,01000608,0003.32,0001.79,0001.75,0000.28,0000.58,0000.48,-000.06,0000.17,0000.15,22.0,00.0,0629.1,30.8
2020-03-27T01:14:00Z,00000388,01000608,0002.15,0001.87,0000.97,0001.07,0000.23,0000.27,0000.08,0000.06,0000.03,22.0,00.0,0629.2,30.8
2020-03-27T01:15:00Z,00000388,01000608,0002.22,0002.30,0001.08,0001.19,0000.64,-000.03,0000.16,0000.20,0000.10,22.1,00.0,0629.3,30.8
2020-03-27T01:16:00Z,00000388,01000608,0004.26,0001.25,0001.23,0001.23,0000.87,0000.51,0000.09,0000.09,0000.10,22.1,00.0,0629.3,30.9
2020-03-27T01:17:00Z,00000388,01000608,0002.81,0001.14,0001.17,0001.12,0000.50,0000.04,0000.14,0000.08,0000.17,22.1,00.0,0629.3,30.9
2020-03-27T01:18:00Z,00000388,01000608,0003.54,0001.99,0001.25,0000.21,0000.26,0000.46,0000.25,0000.12,0000.03,22.2,00.0,0629.4,30.9
2020-03-27T01:19:00Z,00000388,01000608,0001.28,0002.14,0001.25,0000.63,0000.66,0000.36,0000.25,0000.43,0000.31,22.2,00.0,0629.4,30.9
2020-03-27T01:20:00Z,00000388,01000608,0002.81,0002.33,0000.93,0000.13,0000.35,0000.51,0000.02,0000.10,0000.05,22.2,00.0,0629.4,30.9
2020-03-27T01:21:00Z,00000388,01000608,0003.49,0001.53,0001.06,-000.16,0000.22,-000.11,0000.28,0000.23,0000.16,22.2,00.0,0629.4,30.9
2020-03-27T01:22:00Z,00000388,01000608,0003.91,0001.59,0000.62,0001.59,0000.53,0000.25,0000.13,-000.04,0000.10,22.2,00.0,0629.4,30.9
2020-03-27T01:23:00Z,00000388,01000608,0002.51,0001.10,0000.74,0000.95,0000.46,0000.26,0000.26,0000.46,0000.24,22.2,00.0,0629.4,30.8
2020-03-27T01:24:00Z,00000388,01000608,0004.23,0001.72,0001.11,0001.22,0000.59,-000.04,0000.32,0000.08,0000.02,22.1,00.0,0629.3,30.8
2020-03-27T01:25:00Z,00000388,01000608,0002.55,0001.19,0000.19,0001.49,0000.32,-000.05,0000.10,0000.21,0000.28,22.1,00.0,0629.3,30.8
2020-03-27T01:26:00Z,00000388,01000608,0003.08,0001.87,0001.12,0000.77,0000.45,0000.42,0000.39,0000.29,0000.32,22.1,00.0,0629.3,30.8
2020-03-27T01:27:00Z,00000388,01000608,0002.69,0001.93,0000.34,0000.89,0000.23,-000.00,0000.42,0000.33,0000.22,22.1,00.0,0629.2,30.8
2020-03-27T01:28:00Z,00000388,01000608,0002.96,0001.15,0001.13,0000.78,0000.66,-000.14,0000.07,0000.25,0000.08,22.1,00.0,0629.3,30.8
2020-03-27T01:29:00Z,00000388,01000608,0002.76,0002.08,0001.37,0000.67,0000.38,0000.33,0000.20,0000.13,0000.17,22.1,00.0,0629.3,30.8
2020-03-27T01:30:00Z,00000388,01000608,0002.80,0002.31,0001.21,0000.77,0000.46,-000.07,0000.08,0000.05,0000.05,22.1,00.0,0629.3,30.8
2020-03-27T01:31:00Z,00000388,01000608,0003.50,0001.21,0001.01,0000.90,0000.91,0000.34,0000.06,0000.15,0000.03,22.1,00.0,0629.4,30.8
2020-03-27T01:32:00Z,00000388,01000608,0002.63,0000.91,0000.84,0000.75,0000.28,0000.43,0000.13,0000.14,0000.24,22.2,00.0,0629.4,30.8
2020-03-27T01:33:00Z,00000388,01000608,0003.37,0001.49,0001.13,0000.45,0000.18,0000.88,0000.29,0000.34,0000.04,22.2,00.0,0629.4,30.9
2020-03-27T01:34:00Z,00000388,01000608,0002.97,0001.44,0000.96,0001.60,0000.35,0000.16,0000.05,-000.07,0000.25,22.2,00.0,0629.4,30.9
2020-03-27T01:35:00Z,00000388,01000608,0003.24,0001.89,0001.30,0001.51,0000.60,0000.72,0000.36,0000.39,0000.16,22.2,00.0,0629.4,30.8
2020-03-27T01:36:00Z,00000388,01000608,0004.17,0001.47,0001.56,0000.31,0000.49,0000.27,0000.06,0000.15,0000.13,22.2,00.0,0629.4,30.8
2020-03-27T01:37:00Z,00000388,01000608,0002.95,0001.37,0001.57,0000.87,0000.78,-000.40,0000.23,0000.17,0000.15,22.1,00.0,0629.3,30.8
2020-03-27T01:38:00Z,00000388,01000608,0002.35,0001.42,0000.78,0000.76,0000.29,0000.46,0000.07,0000.14,0000.09,22.1,00.0,0629.3,30.8
2020-03-27T01:39:00Z,00000388,01000608,0001.28,0001.80,0001.31,0001.10,0000.38,0000.21,0000.07,-000.19,0000.07,22.1,00.0,0629.3,30.8
2020-03-27T01:40:00Z,00000388,01000608,0004.06,0002.43,0001.10,0000.58,0000.39,-000.17,0000.25,0000.23,-000.02,22.1,00.0,0629.3,30.8
2020-03-27T01:41:00Z,00000388,01000608,0002.47,0002.15,0000.90,0000.98,0000.41,-000.18,0000.19,0000.21,0000.29,22.0,00.0,0629.3,30.8
2020-03-27T01:42:00Z,00000388,01000608,0003.56,0001.43,0001.12,0000.14,0000.61,0000.10,0000.19,0000.15,0000.12,22.1,00.0,0629.4,30.8
2020-03-27T01:43:00Z,00000388,01000608,0003.12,0001.60,0001.39,0001.26,0000.29,0000.27,0000.11,0000.21,0000.16,22.0,00.0,0629.4,30.8
2020-03-27T01:44:00Z,00000388,01000608,0003.81,0002.04,0001.06,0001.24,0000.13,0000.17,0000.28,0000.15,0000.22,22.1,00.0,0629.4,30.8
2020-03-27T01:45:00Z,00000388,01000608,0003.18,0002.23,0001.86,0000.52,0000.47,0000.54,0000.24,0000.28,-000.04,22.1,00.0,0629.4,30.8
2020-03-27T01:46:00Z,00000388,01000608,0002.88,0002.07,0001.21,0000.52,0000.61,0000.55,0000.08,0000.24,0000.20,22.1,00.0,0629.4,30.8
2020-03-27T01:47:00Z,00000388,01000608,0003.75,0002.24,0001.54,0000.96,0000.61,0000.29,0000.26,0000.13,0000.22,22.1,00.0,0629.5,30.8
2020-03-27T01:48:00Z,00000388,01000608,0003.12,0001.80,0000.97,0000.47,0000.46,0000.58,0000.22,0000.25,0000.20,22.1,00.0,0629.5,30.8
2020-03-27T01:49:00Z,00000388,01000608,0002.41,0001.37,0001.18,0000.33,0000.65,0000.36,0000.34,0000.18,0000.15,22.2,00.0,0629.5,30.9
2020-03-27T01:50:00Z,00000388,01000608,0003.95,0001.33,0001.13,0000.53,0000.60,0000.30,0000.02,0000.15,0000.08,22.2,00.0,0629.5,30.9
2020-03-27T01:51:00Z,00000388,01000608,0002.33,0001.79,0001.21,0000.41,0000.81,0000.75,0000.12,0000.16,0000.12,22.2,00.0,0629.5,30.9
2020-03-27T01:52:00Z,00000388,01000608,0002.98,0001.61,0001.43,0000.52,0000.30,0000.39,0000.30,0000.13,0000.24,22.2,00.0,0629.5,30.8
2020-03-27T01:53:00Z,00000388,01000608,0003.10,0001.80,0000.83,0000.57,0000.84,0000.31,0000.05,0000.25,-000.11,22.2,00.0,0629.5,30.8
2020-03-27T01:54:00Z,00000388,01000608,0003.31,0001.39,0001.44,0000.26,0000.43,0000.51,0000.23,0000.29,0000.29,22.2,00.0,0629.5,30.8
2020-03-27T01:55:00Z,00000388,01000608,0003.32,0001.14,0000.74,-000.10,-000.04,0000.16,0000.30,0000.03,0000.13,22.1,00.0,0629.5,30.8
2020-03-27T01:56:00Z,00000388,01000608,0003.44,0001.72,0000.85,0001.01,0000.50,0000.28,0000.17,0000.19,0000.09,22.1,00.0,0629.5,30.8
2020-03-27T01:57:00Z,00000388,41000608,,,,,,,,,,22.2,00.0,0629.4,30.8
2020-03-27T01:58:00Z,00000388,61000608,,,,,,,,,,22.3,00.0,0628.6,30.8
2020-03-27T01:59:00Z,00000388,21000608,,,,,,,,,,22.4,00.0,0628.6,30.8
2020-03-27T02:00:00Z,00000388,21000608,,,,,,,,,,22.4,00.0,0628.7,30.8
2020-03-27T02:01:00Z,00000388,21000608,,,,,,,,,,22.5,00.0,0628.7,30.8
2020-03-27T02:02:00Z,00000388,21000608,,,,,,,,,,22.5,00.0,0628.7,30.9
2020-03-27T02:03:00Z,00000388,61000608,,,,,,,,,,22.5,00.0,0628.7,30.8
2020-03-27T02:04:00Z,00000388,41000608,0003.60,0001.85,0000.96,0001.42,0000.20,0000.09,0000.08,0000.33,0000.26,22.3,00.0,0629.6,30.8
2020-03-27T02:05:00Z,00000388,01000608,0003.35,0001.45,0001.92,0000.72,0000.33,0000.53,0000.35,0000.12,0000.02,22.3,00.0,0629.6,30.8
2020-03-27T02:06:00Z,00000388,01000608,0003.22,0001.73,0000.98,0000.36,0000.63,0000.42,0000.12,0000.16,0000.15,22.3,00.0,0629.6,30.8
2020-03-27T02:07:00Z,00000388,01000608,0004.31,0001.48,0001.36,0000.80,0000.69,0000.25,0000.20,0000.13,0000.26,22.2,00.0,0629.6,30.8
2020-03-27T02:08:00Z,00000388,01000608,0004.12,0001.78,0001.26,0001.19,-000.19,0000.45,0000.03,0000.17,0000.08,22.2,00.0,0629.6,30.8
2020-03-27T02:09:00Z,00000388,01000608,0003.65,0001.79,0000.70,0000.97,0000.30,0000.32,0000.29,0000.15,0000.22,22.2,00.0,0629.5,30.8
2020-03-27T02:10:00Z,00000388,01000608,0003.30,0001.69,0001.15,0000.48,0000.34,0000.25,0000.23,0000.09,0000.02,22.1,00.0,0629.5,30.8
2020-03-27T02:11:00Z,00000388,01000608,0003.97,0001.21,0000.90,0000.40,0000.49,-000.14,0000.27,0000.29,0000.31,22.1,00.0,0629.5,30.8
2020-03-27T02:12:00Z,00000388,01000608,0002.26,0001.34,0001.33,0001.78,0000.18,0000.04,0000.34,0000.49,0000.22,22.1,00.0,0629.6,30.8
2020-03-27T02:13:00Z,00000388,01000608,0003.49,0001.76,0001.64,0001.35,0000.24,0000.12,0000.02,-000.06,0000.18,22.1,00.0,0629.6,30.8
2020-03-27T02:14:00Z,00000388,01000608,0003.22,0001.54,0001.10,0001.46,0000.09,0000.74,0000.15,0000.06,0000.15,22.2,00.0,0629.7,30.8
2020-03-27T02:15:00Z,00000388,01000608,0002.45,0002.11,0001.11,0001.25,0000.18,0000.20,0000.12,0000.28,0000.02,22.2,00.0,0629.7,30.8
2020-03-27T02:16:00Z,00000388,01000608,0002.83,0001.74,0001.17,0000.88,0000.66,0000.10,0000.26,0000.28,0000.30,22.2,00.0,0629.8,30.8
2020-03-27T02:17:00Z,00000388,01000608,0002.92,0001.20,0001.11,0000.43,0000.43,0000.24,0000.21,0000.31,0000.13,22.2,00.0,0629.8,30.8
2020-03-27T02:18:00Z,00000388,01000608,0002.33,0001.18,0000.95,0000.68,0000.11,0000.03,0000.20,0000.04,-000.00,22.2,00.0,0629.8,30.9
2020-03-27T02:19:00Z,00000388,01000608,0003.03,0001.23,0000.99,0001.21,0000.18,0000.15,0000.08,0000.15,0000.11,22.2,00.0,0629.8,30.9
2020-03-27T02:20:00Z,00000388,01000608,0002.71,0001.32,0001.09,0001.04,0000.16,0000.15,0000.04,0000.04,0000.12,22.3,00.0,0629.8,30.9
2020-03-27T02:21:00Z,00000388,01000608,0002.62,0001.51,0001.24,0000.84,0000.35,0000.09,0000.03,0000.10,0000.04,22.2,00.0,0629.8,30.8
2020-03-27T02:22:00Z,00000388,01000608,0002.58,0001.60,0001.27,0001.32,0000.25,0000.40,0000.34,0000.17,0000.08,22.2,00.0,0629.8,30.8
2020-03-27T02:23:00Z,00000388,01000608,0003.09,0001.80,0001.32,0001.54,0000.50,0000.26,0000.10,0000.17,0000.26,22.2,00.0,0629.8,30.8
2020-03-27T02:24:00Z,00000388,01000608,0003.17,0000.94,0000.73,0001.16,0000.42,0000.65,0000.01,0000.08,-000.04,22.2,00.0,0629.8,30.8
2020-03-27T02:25:00Z,00000388,01000608,0004.17,0001.45,0000.91,0000.37,0000.36,0000.41,0000.34,0000.05,0000.15,22.1,00.0,0629.7,30.8
2020-03-27T02:26:00Z,00000388,01000608,0002.92,0001.10,0001.34,0000.78,0000.09,0000.42,0000.17,0000.40,0000.24,22.1,00.0,0629.7,30.8
2020-03-27T02:27:00Z,00000388,01000608,0002.96,0001.28,0001.44,0000.27,0000.30,0000.48,0000.21,0000.26,0000.31,22.1,00.0,0629.7,30.8
2020-03-27T02:28:00Z,00000388,01000608,0004.45,0001.55,0000.61,0001.73,-000.17,0000.30,0000.19,0000.09,-000.00,22.1,00.0,0629.8,30.8
2020-03-27T02:29:00Z,00000388,01000608,0002.87,0001.37,0001.23,0000.90,0000.48,0000.13,0000.14,0000.13,0000.05,22.2,00.0,0629.8,30.9
2020-03-27T02:30:00Z,00000388,01000608,0002.67,0001.32,0001.25,0000.91,0000.50,0000.08,0000.19,0000.28,0000.24,22.2,00.0,0629.8,30.8
2020-03-27T02:31:00Z,00000388,01000608,0002.64,0001.27,0001.09,0000.74,0000.28,-000.06,0000.07,0000.15,0000.08,22.2,00.0,0629.8,30.9
2020-03-27T02:32:00Z,00000388,01000608,0003.23,0001.41,0001.29,0001.03,0000.63,0000.41,0000.11,0000.10,0000.08,22.2,00.0,0629.8,30.9
2020-03-27T02:33:00Z,00000388,01000608,0002.73,0001.30,0001.15,0000.37,0000.66,0000.14,0000.05,0000.07,-000.02,22.3,00.0,0629.8,30.9
2020-03-27T02:34:00Z,00000388,01000608,0003.43,0001.90,0001.18,0001.26,0000.29,0000.45,0000.05,-000.06,0000.13,22.3,00.0,0629.8,30.9
2020-03-27T02:35:00Z,00000388,01000608,0003.50,0001.66,0001.04,0001.03,0000.69,0000.11,0000.16,0000.23,0000.29,22.3,00.0,0629.8,30.9
2020-03-27T02:36:00Z,00000388,01000608,0002.80,0001.25,0000.75,0000.64,0000.75,-000.10,0000.10,0000.20,-000.01,22.2,00.0,0629.8,30.8
2020-03-27T02:37:00Z,00000388,01000608,0001.87,0001.82,0001.12,0000.98,0000.28,0000.05,0000.17,0000.08,0000.04,22.2,00.0,0629.8,30.8
2020-03-27T02:38:00Z,00000388,01000608,0003.03,0001.20,0000.55,0001.07,0000.17,0000.30,0000.26,0000.31,0000.20,22.2,00.0,0629.8,30.8
2020-03-27T02:39:00Z,00000388,01000608,0003.92,0001.68,0001.39,0001.13,0000.41,0000.43,0000.19,-000.00,0000.14,22.1,00.0,0629.8,30.8
2020-03-27T02:40:00Z,00000388,01000608,0003.53,0001.17,0001.27,0001.21,0000.06,0000.07,0000.17,0000.08,0000.21,22.1,00.0,0629.8,30.8
2020-03-27T02:41:00Z,00000388,01000608,0003.19,0001.68,0001.46,0001.32,0000.11,0000.14,0000.21,0000.29,0000.06,22.1,00.0,0629.8,30.8
2020-03-27T02:42:00Z,00000388,01000608,0003.64,0001.80,0000.99,0000.49,0000.49,0000.42,0000.16,0000.33,0000.20,22.1,00.0,0629.9,30.8
2020-03-27T02:43:00Z,00000388,01000608,0001.55,0001.98,0000.71,0000.26,-000.06,0000.47,0000.02,0000.16,0000.17,22.1,00.0,0629.9,30.8
2020-03-27T02:44:00Z,00000388,01000608,0003.04,0001.65,0000.78,0000.96,0000.31,0000.38,0000.32,-000.05,-000.02,22.2,00.0,0629.9,30.9
2020-03-27T02:45:00Z,00000388,01000608,0004.03,0001.78,0001.23,0001.26,0000.36,0000.37,0000.15,0000.29,0000.26,22.2,00.0,0630.0,30.9
2020-03-27T02:46:00Z,00000388,01000608,0003.05,0001.39,0001.07,0000.96,0000.50,0000.26,0000.22,0000.20,0000.19,22.2,00.0,0630.0,30.9
2020-03-27T02:47:00Z,00000388,01000608,0002.59,0001.56,0001.23,0001.14,0000.36,0000.20,0000.11,0000.16,0000.01,22.2,00.0,0630.0,30.9
2020-03-27T02:48:00Z,00000388,01000608,0002.90,0001.81,0001.57,0000.47,0000.18,0000.04,0000.15,0000.20,0000.22,22.2,00.0,0630.0,30.9
2020-03-27T02:49:00Z,00000388,01000608,0002.10,0001.29,0001.31,0000.41,0000.04,0000.32,0000.08,0000.06,0000.26,22.3,00.0,0630.1,30.9
2020-03-27T02:50:00Z,00000388,01000608,0002.38,0001.04,0001.19,0000.62,0000.33,0000.23,0000.06,0000.25,-000.08,22.3,00.0,0630.1,30.9
2020-03-27T02:51:00Z,00000388,01000608,0002.71,0001.72,0001.34,0000.63,-000.00,0000.05,0000.32,-000.04,0000.20,22.3,00.0,0630.1,30.9
2020-03-27T02:52:00Z,00000388,01000608,0003.74,0001.70,0000.83,0000.75,0000.36,0000.15,0000.23,0000.37,0000.13,22.3,00.0,0630.2,30.9
2020-03-27T02:53:00Z,00000388,01000608,0003.18,0001.15,0001.23,0000.46,0000.24,0000.16,0000.10,0000.19,-000.03,22.3,00.0,0630.1,30.9
2020-03-27T02:54:00Z,00000388,01000608,0002.72,0001.68,0000.76,0000.42,0000.31,0000.13,0000.07,-000.01,0000.17,22.3,00.0,0630.1,30.9
2020-03-27T02:55:00Z,00000388,01000608,0003.13,0001.58,0001.26,0001.57,0000.52,0000.51,0000.34,0000.14,0000.22,22.2,00.0,0630.1,30.8
2020-03-27T02:56:00Z,00000388,01000608,0002.66,0001.59,0001.27,0000.71,-000.02,0000.51,0000.30,0000.15,0000.15,22.2,00.0,0630.1,30.8
2020-03-27T02:57:00Z,00000388,41000608,,,,,,,,,,22.2,00.0,0630.1,30.8
2020-03-27T02:58:00Z,00000388,61000608,,,,,,,,,,22.4,00.0,0629.3,30.8
2020-03-27T02:59:00Z,00000388,21000608,,,,,,,,,,22.5,00.0,0629.3,30.8
2020-03-27T03:00:00Z,00000388,21000608,,,,,,,,,,22.5,00.0,0629.3,30.9
2020-03-27T03:01:00Z,00000388,21000608,,,,,,,,,,22.5,00.0,0629.3,30.9
2020-03-27T03:02:00Z,00000388,21000608,,,,,,,,,,22.5,00.0,0629.4,30.9
2020-03-27T03:03:00Z,00000388,61000608,,,,,,,,,,22.6,00.0,0629.4,30.9
2020-03-27T03:04:00Z,00000388,41000608,0003.90,0001.52,0000.76,0000.93,0000.02,0000.13,0000.18,0000.18,0000.06,22.4,00.0,0630.3,30.9
2020-03-27T03:05:00Z,00000388,01000608,0002.38,0000.78,0001.31,0000.35,-000.41,-000.22,0000.02,0000.12,0000.04,22.4,00.0,0630.4,30.8
2020-03-27T03:06:00Z,00000388,01000608,0003.04,0001.97,0000.93,0000.06,0000.54,0000.13,0000.13,-000.07,0000.18,22.3,00.0,0630.4,30.8
2020-03-27T03:07:00Z,00000388,01000608,0003.03,0001.62,0000.83,-000.33,0000.15,0000.28,0000.08,0000.25,0000.20,22.3,00.0,0630.3,30.8
2020-03-27T03:08:00Z,00000388,01000608,0003.39,0001.25,0001.00,0001.09,0000.03,-000.13,0000.24,0000.00,-000.11,22.3,00.0,0630.3,30.8
2020-03-27T03:09:00Z,00000388,01000608,0002.97,0001.32,0000.67,0000.02,0000.30,0000.05,0000.10,0000.24,0000.27,22.2,00.0,0630.4,30.8
2020-03-27T03:10:00Z,00000388,01000608,0002.68,0002.00,0000.61,0000.51,0000.07,0000.08,0000.24,0000.13,0000.09,22.2,00.0,0630.4,30.8